Zurück zum Katalog

NOAA 16 DEB

AktivSSO
NORAD 41378·DEBRIS·🇺🇸 United States

Gestartet Sep 21, 2000 von Vandenberg Space Force Base

Loading…

Nächste Überflüge (nächste 24 Stunden)

TLE

AktuellSource: Space-Track

Epoche: Sep 14, 2026, 00:03 UTC

1 41378U 00055JX  26257.00230046  .00001739  00000-0  83437-3 0  9998
2 41378  98.6314 269.8380 0039208 241.1197 118.6043 14.19809053548942

Verfolge NOAA 16 DEB in Echtzeit mit AllMySat

Download on the App Store